ゲーレルス彗星

P/1997 C1 ( Gehrels )

English version
Home page
Updated on June 11, 2005

---------------------------------------------------------------------

・ プロフィール

発見日 1997年2月1日
発見光度 17.9等
発見者 Tom Gehrels (Lunar and Planetary Laboratory)

・ 軌道要素

   The following improved orbital elements by Kenji Muraoka, are
  from 152 observations 1997 Feb. 2 to 1998 Feb. 2, perturbations
  by 9 Planets, Moon and 5 minor planets were taken into account. 
   The mean residual is +/- 0.68 arc seconds.

      Epoch  =  1996 Feb.  7.0  TT       JDT = 2450120.5
          T  =  1996 Jan. 29.20583       +/- 0.00215 (m.e.) TT
       Peri. =  211.34222                +/- 0.01304
       Node  =  225.92332                +/- 0.01196   (2000.0)
       Incl. =    2.86789                +/- 0.00067
          q  =    3.5652123              +/- 0.0001333 AU
          e  =    0.4688226              +/- 0.0000165
          a  =    6.7119054              +/- 0.0001405 AU
          n  =    0.05668072             +/- 0.00000178
          P  =   17.389                  +/- 0.0005459  years
                                        (+/- 0.20 day)

・ 星図

・ 1995年 7月 2日〜1996年 8月 5日
・ 1996年 6月26日〜1998年 6月16日

・ 光度変化

        m1 = 3.0 + 5 logΔ + 20 log r

---------------------------------------------------------------------

軌道要素は村岡健治氏の計算によるものです。
星図は StellaNavigator Ver.2.0 for Windows (アストロアーツ 編著 / アスキー出版局刊) で作成したものです。
光度グラフはComet for Windowsで作成したものです。

---------------------------------------------------------------------

Copyright(C) Seiichi Yoshida (comet@aerith.net). All rights reserved.